[Date Prev][Date Next][Thread Prev][Thread Next][Date Index][Thread Index]

[jamsat-news:1334] jas2info #201



========================   最新情報   ==============================

        Last updated :Sat23SEP2000  17:00 (JST) #201

====================================================================
   
  1)アマチュア通信衛星情報 FOシリーズの軌道要素、テレメトリ、
   QSOの状況等をまとめてみました.
   
   FO−29の9月23日(土)のテレメトリは12:00(JST)のパスでは
  JARLのホームぺージのとうりアナログ運用でした。今まで観測したテレメトリーと分析
  結果を掲載しておきます.   

 AS20255C1  23Sep2000
 12:02-12:08(JST)
 Freq.  - 435.789MHz

 HI HI AE C7 88 55 8F D9 FF 00 00 00 34 3F 90 60 92 90 B0 98 BD B6 BA BD BA
 HI HI AE C7 88 55 94 D9 FF 0D 00 00 6D 4B 75 60 92 90 B0 76 BD B6 BA BD BA 
 HI HI AE C7 88 55 99 D9 FF 0D 00 00 37 30 89 60 92 90 B0 78 BC B6 BA BD BA 
 HI HI AE 07 88 55 9F D9 FF 0D 00 00 5A 67 85 60 93 91 B0    BC B6 BA BD BA 
 HI HI AE C7 88 55 84 D9 FF 0D 00 00 55 1B 83 60 93 91 B0 80 BC B6 BA BC BA 

 AS20254C1  23Sep2000
 10:12-10:27(JST)
 Freq.435.805-.786MHz

                                     5A 4D 7F 60 93 91 B0 89 BB BC BC B8 B9 
 HI HI AE 07 88 55 94 D9 FF 0D 00 00    43 7A 60 92 92 B0 69 BA BC BC B8 B9 
 HI HI AE C7 88 55 9A D9 FF 0D 0O 00 74 5D 7B 60 93 91 B0 58 BB SB BC B8 B9 
 HI HI AE 07 88 55 9F D9 FF 0D 00 00 38 7D    60 93 92 B0    BB BC BC B8 B9   
 HI HI AE C7 88 55 84 DO FF 0D O0 00 5E       60 93 92 B0 7B BB BC BC B8 B9 
 HI HI AE C7 88 55 89 D9 FF 0D 00 00       80 60 93 91 B0    BB BC BC B8 B9 
 HI HI AE C7 88 55 91 D9 FF 0D 00 O0     6 7A 60 92 80 B0 7B BB BC BC B8 B9 
 HI HI AE C7 88 55 94 D9 FF 0D 00 00          60 92 93 B0    BA BB BB B8 B9 
 HI HI AE C7 88 55 9A D0 FF 0D 00 00       86 60 92 92 B0 71 BA BA BA B8 B9 
 HI HI AE C7 88 55 9E D9 FF 0D 00 00 5F 3E 87 60 92 92 B0 7A BA BA BA B8 B9 
 HI HI AE 07 88 55 89 D9 FF 0D 00 00 55 86 87 60 86 90 B0 85 BA B9 BA B7 B9  
 HI HI AE C7 88 55 8E D9 05 0D 00 00 A2 5C 88 60 93 91 B0 9A BA B9 BA B8 B9 
 HI HI AE C7 88 55 93 D9 FF 0D 00 00 59 6D 80 60 94 91 B0    BA B9 B9 B8 B9 
 HI HI AE C7 88 55 99 D9 05 0D 00 00 96 2E 85 60 92 90 B0 7B BA B9 B9 B7 B9 
 HI HI AE C7 88 55 9E D9 FF 0D 00 00 73 98 77 60 92 90 B0 7D BA B8 B9 B8 B9 
 HI HI AE C7 88 55 83 D9 FF 0D 00 00 62 23 83 47 95 93 B0 7A BA B8 B9 B7 B9 
 HI HI AE C7 88 55 93 D9 FF 0D 00 00 64 55 67 60 94 94 B0 9B BA B8 B9 B8 B9 


 AS20227C1   20Sep2000
                                                                      
                                                                      B9 B6 B7 
 HI HI AE 07 88 55 95 D9 FF 0D 00 00 39 93 65 60 5  93 91 8E 76 B9 B9 B9 B6 B7 
 HI HI AE C7 88 55 9A D9 FF 0D 00 00 0D 90 61 60    93 91 85 59 B8 B9 B9 B5 B7 
 HI HI AE 07 88 55 80 D9 0A 0D 00 00 06 49 BA 5A 60 92 90 9D 77 B8 B9 B9 B5 B7 
 HI HI AE C7 88 55 85 D9 FF 0D 00 00 6D 59 65 60    92 90 8E 7B B8 B9 B9 B5 B7 
 HI HI AE C7 88 55 8B D9 FF 0D 00 00    5D B3 5F 58           B B8 B9 B9 B5 B7 
 HI HI AE C7 88 55 90 D9 0A 0D 00 00 6              95 91 B0 78 B8 B9 B9 B5 B7 

 AS20201C1    29Sep2000
 12:11-12:20(JST)

 HI HI AE C7 88 55 98 C9 FF 0D 00 05 4  34 7E 4 
 HI HI AE C7 88 55 82 C9 FF 0D 00 00 5  40 88 60 93            5D  BD BE BE 
                            2 90 B0 78 BF BB BD BE BD 
 HI HI AE C7 88 55 92 C9 FF 0D 00 00 5F 24 6E 60 92 90 9E 70 BF BA BD BE BD
 HI HI AE C7 88 55 97 C9 FF 0D 00 00 65 4O E1 60 92 90 6E 6F BF BA BD BE BD 
 HI HI AE C7 88 55 9C C9 FF 0D 00 00 32 45 81 60 92 90 B0 8A BF BA DD SE BD 
 HI HI AE C7 88 55 81 C9 FF 0D 00 00 96 2A 6B 60 92 90 

 ------------------------ FO-29の軌道要素 ------------------------------        
 
  ■ 軌道要素1:「jamsat−keps:1031」より         
          SB KEPS @ AMSAT  $ORB00265.N
           2Line Orbital Elements 00265.AMSAT

 HR AMSAT ORBITAL ELEMENTS FOR AMATEUR SATELLITES IN NASA FORMAT
 FROM WA5QGD FORT WORTH,TX September 21, 2000
 SEND SUBSCRIBE/UNSUBSCRIBE TO majordomo@amsat.org ONLY
 BID: ORB00265.N

 DECODE 2-LINE ELSETS WITH THE FOLLOWING KEY:
 1 AAAAAU 00  0  0 BBBBB.BBBBBBBB  .CCCCCCCC  00000-0  00000-0 0  DDDZ
 2 AAAAA EEE.EEEE FFF.FFFF GGGGGGG HHH.HHHH III.IIII JJ.JJJJJJJJKKKKKZ
 KEY: A-CATALOGNUM B-EPOCHTIME C-DECAY D-ELSETNUM E-INCLINATION F-RAAN
 G-ECCENTRICITY H-ARGPERIGEE I-MNANOM J-MNMOTION K-ORBITNUM Z-CHECKSUM

 TO ALL RADIO AMATEURS BT

 FO-29
 1 24278U 96046B   00263.71902345 -.00000011  00000-0  26535-4 0 03655
  2 24278 098.5782 159.1159 0351475 342.4802 016.4453 13.52737496202074  

 ■ 軌道要素2:「jamsat−keps:1032」より                    
         SB KEPS @ AMSAT  $ORB00265.O
             Orbital Elements  00265.OSCAR

 HR AMSAT ORBITAL ELEMENTS FOR OSCAR SATELLITES
 FROM WA5QGD FORT WORTH,TX September 21, 2000
 SEND SUBSCRIBE/UNSUBSCRIBE TO majordomo@amsat.org ONLY
 BID: ORB00265.O
 TO ALL RADIO AMATEURS BT

  Satellite: FO-29
 Catalog number: 24278
 Epoch time:      00263.71902345
 Element set:    0365
 Inclination:      098.5782 deg
 RA of node:       159.1159 deg
 Eccentricity:    0.0351475
 Arg of perigee:   342.4802 deg
 Mean anomaly:     016.4453 deg
 Mean motion:   13.52737496 rev/day
 Decay rate:       -1.1e-07 rev/day^2
 Epoch rev:           20207
 Checksum:              303

-------------------  FO-29(JAS-2)のテレメトリに関する情報  ---------------------- 
 
2)上記テレメトリーの最後の行を分析しておきます.
 
  AS20255C1  23Sep2000
  12:02-12:08(JST)
  Freq.  - 435.789MHz

 HI HI AE C7 88 55 84 D9 FF 0D 00 00 55 1B 83 60 93 91 B0 80 BC B6 BA BC BA
 
テレメトリ  内 容      換算算値 単 位  

 3C	磁気センサーZ軸=	41666.7	[nT]
 3D	磁気センサX軸	=	13235.3	[nT]
 4A	太陽電池発生電流=	 1284.3	[mA]
 4B	B充放電電流	=	 -118.4	[mA]
 4C	B端子電圧	=	   15.8	[V]
 4D	B中間端子電圧	=	    7.0	[V]
 5A	バス電圧 	=	   17.3	[V]
 5B	JTA送信電力	=	  733.9	[mW]
 5C 	構体温度1	=	    8.9	[℃]
 5D	構体温度2	=	   11.2	[℃]
 6A	構体温度3	=	    9.6	[℃]
 6B	構体温度4	=	    8.9	[℃]
 6C	Bセル温度	=	    9.6	[℃]
 
 ===========================  FO-29(ふじ3号)のQSO情報等 ======================
   
 3)[jamsat-bb:5644] FO-29 in digital modeについて投稿がありましたので、
   転載させて頂きました。

jo2oxl> 先ほど,0800JSTのパスで,デジタルモードで運用されているFO-29にコネクトできま
jo2oxl> した.
jo2oxl> メッセージを書き込もうとしたのですが,これはうまくいきませんでした.
jo2oxl> 
jo2oxl> uplink:145.87MHz
jo2oxl> downlink:435.91MHz
jo2oxl> 
jo2oxl> 使用ソフト:Exterm
jo2oxl> 
jo2oxl> ログインメッセージ:
jo2oxl> C 8J1JCS
jo2oxl> cmd:*** CONNECTED to 8J1JCS
jo2oxl> 
jo2oxl> FO-29/JAS-2 Mailbox ver 1.01
jo2oxl> You can use Mailbox for 10 minutes.
jo2oxl> commands [B/F/H/K/M/Q/R/U/W/Y]
jo2oxl> Use H command for Help
jo2oxl> JAS2>
jo2oxl> 
jo2oxl> うまくいかなかった原因は
jo2oxl> 1.ダウンリンクが不法局の混信を受けている.
jo2oxl> 2.ダウンリンクが安定しない.(プリアンプをつければいいのか?)
jo2oxl> この2つでしょうか?
jo2oxl> 
jo2oxl> 私は以前からこのメールボックス運用を楽しみにしていたのですが,なかなか運用さ
jo2oxl> れず気をもんでいました.
jo2oxl> そこで,この前のハムフェアでJARL技研の方にリクエストしていました.
jo2oxl> 技術研究所の方々の努力に心より感謝いたします.
jo2oxl> 
jo2oxl> /EX

  [jamsat-bb:5659] Re: FO-29 in digital mode
jo2oxl> 再びJO2OXL落合です.
jo2oxl> FO-29のログについての書き込みがあるようなので,私のログもupします.
jo2oxl> 
jo2oxl> C 8J1JCS
jo2oxl> cmd:*** CONNECTED to 8J1JCS
jo2oxl> 
jo2oxl> FO-29/JAS-2 Mailbox ver 1.01
jo2oxl> You can use Mailbox for 10 minutes.
jo2oxl> commands [B/F/H/K/M/Q/R/U/W/Y]
jo2oxl> Use H command for Help
jo2oxl> JAS2>r 1
jo2oxl> 
jo2oxl> *** DISCONNECTED
jo2oxl> cmd:C 8J1JCS
jo2oxl> 
jo2oxl> cmd:8J1JCS*** 8J1JCS busy
jo2oxl> *** DISCONNECTED
jo2oxl> 8J1JCS>BEACON:
jo2oxl> JAS-2    '00/09/15 01:39:58
jo2oxl> 9C 03 03 08 01 C7 00 02 00 00
jo2oxl> 00 00 A9 74 74 9A 3D 96 93 A1
jo2oxl> AA 52 A8 02 CE BC BD BD BA BB
jo2oxl> 
jo2oxl> 8J1JCS>BEACON:D5 02 00 09 00 00 CC 40 00 00
jo2oxl> 00 00 EF 5F 00 78 7B 80 8D 84
jo2oxl> 00 00 00 AE 7D D4 C7 00 00 00
jo2oxl> 
jo2oxl> 8J1JCS>BEACON:
jo2oxl> Total 01 user(s)
jo2oxl> Call sign  Remain time
jo2oxl> 
jo2oxl> JA5BLZ-0   08:36
jo2oxl> 
jo2oxl> 8J1JCS>BEACON:
jo2oxl> Total    2 File(s)
jo2oxl> 
jo2oxl>  No.  Date  UTC    To    From   Size   Subject
jo2oxl> 0004 01/12 11:34 ALL    7N1JVW     251 Hello !  From Japan
jo2oxl> 0
jo2oxl> 8J1JCS>BEACON:003 01/12 06:18 ALL    K7XQ        40
jo2oxl> 
jo2oxl> 未だに7N1JVW藤田さんのメッセージはDL出来ません.
jo2oxl> コネクト要求は通るのに何故?
jo2oxl> 
jo2oxl> /EX
jo2oxl> ------------------------------------------------
jo2oxl> Ochiai Takushi(落合 卓史) <jo2oxl@jamsat.or.jp>
jo2oxl> QTH:静岡県駿東郡清水町
jo2oxl> JCG#18009
jo2oxl> GL#PM95KC
jo2oxl> http://www3.justnet.ne.jp/~dxer/
jo2oxl> tel & fax +81-559-31-6640
jo2oxl> de JO2OXL _.. .  .___ ___ ..___ ___ _.._ ._..
jo2oxl> 73 TU VA __... ...__  _ .._  ..._._
jo2oxl> ------------------------------------------------

 ===============================================================================
   4)JARL のホームページに運用予定が記載されていましたのでご紹介します.
       ( http://www.jarl.or.jp/Japanese/3_Fuji/new/uy.htm )

        ■ ふじ3号/FOー29/JAS-2 ■  
   
     *** 運用予定について ***
 
   9月18日 〜  9月24日 アナログ系運用 
   9月25日 〜 10月01日 デジタル系1200bpsメールボックス運用
  10月02日 〜 10月06日 アナログ系運用 
 ※10月07日 〜 11月05日デジトーカ運用
 
 ※夏休み期間中のデジトーカ運用が大変好評を得ましたので,秋の行事に併せて
  約1ヶ月間デジトーカ運用を行います。なお,デジトーカの音声メッセージは
  新音声データをUPする予定ですのでご期待ください。

  *なお,運用予定は都合により変更することがありますのでご了承願います。

 照会先 : lab@jarl.or.jp

 最新の情報はテレホンサービス(03−3942−1000)をお聞きください。  
 以後の運用につきましては11月上旬にお知らせいたします。
 
 ふじ2号(JAS−1b)の運用 

 CWテレメトリの機能に障害が発生しています。詳細は「ふじ2号」の現況をご覧ください。
 運用はアナログ系の連続運用とします。
 
 
-----------------------    FO−20(JAS-1b)道要素   -------------------------
  5)
  ■ 軌道要素1 :出典はFO-29「ふじ3号」に同じ.
  
  FO-20
 1 20480U 90013C   00263.87248329  .00000011  00000-0  98458-4 0 02781
 2 20480 099.0673 016.6056 0540216 200.8929 156.9312 12.83278636497421
 
  ■ 軌道要素2 :出典はFO−29「ふじ3号」に同じ.
               
  Satellite: FO-20
 Catalog number: 20480
 Epoch time:      00263.87248329
 Element set:    0278
 Inclination:      099.0673 deg
 RA of node:       016.6056 deg
 Eccentricity:    0.0540216
 Arg of perigee:   200.8929 deg
 Mean anomaly:     156.9312 deg
 Mean motion:   12.83278636 rev/day
 Decay rate:        1.1e-07 rev/day^2
 Epoch rev:           49742
 Checksum:              305

 --------------------------------------------------------------------------------
 
         ■ ふじ2号/FO−20/JAS-1b ■      
            
          「ふじ2号」 現況                                                                                  
             
   JAS-1b(ふじ2号)のCWテレメトリ信号に,1997年10月12日12時(JST)の
 日本上空通過時,3桁の数字が繰り返されるはずが3個の長音の繰り返しとなっているという
 異常が発見されました。この不具合は次の通過時からは回復していましたが13日15時20分の
 通過時に再び観測されました。現在はA0の送信が続いています。衛星のアナログ系中継モード
 動作は異常が無く,正常時のテレメトリ内容からは衛星の動作に異常は認められません。従って,
 直ちに衛星のミッションに影響することは無いと予想されますので,当面はアナログ系中継
 モードを継続します。衛星は既に打ち上げてから7年8ヶ月を経ておりますので,今後は監視を
 強化する予定です。アマチュア各位のレポートをお待ちします。
 -------------------------------------------------------------------------------- 
  1997年10月14日 00時35分 確認のテレメトリ音 151 KB (A0) 
  1997年10月14日 11時10分 確認のテレメトリ音 216 KB (異常キーイング) 

  以上 JARLのホ−ムページの http://www.jarl.or.jp/Japanese/3_Fuji/new/fuji.htm

===================== FO-20 ふじ2号 のテレメトリ観測結果 ====================

   6月3日(土)の14:15(JST)のパスの観測結果では以前観測した結果よりも変動のない
 単一周波数でドップラー効果で周波数がずれていくのみの状態に戻っておりました。
                                         
   =============   JAS-2 (ふじ3号)と現在までの情報   ===========
  
  A.電話によるふじ3号の運用情報
      社団法人日本アマチュア連盟によるサービス
           TEL .   03− 3942 − 1000
  B.アマチュア無線FAXサービス
      JARLによるふじ3号の軌道情報(オービットカレンダー)
         FAX No.  03− 3233 −0055
  C.WWWブラウザで情報を簡単に見れる人のためにJAS−2
     ふじ3号の衛星としての運用されるまでの名前)の概要、打ち上げ
     までの状況、運用中における状況を説明したホームページを紹介し
     ておきます.
     社団法人日本アマチュア無線連盟(JARL)のホームページ

          http://www.jarl.or.jp/Japanese/3_Fuji/jasmenu.htm
 
     宇宙開発事業団(NASDA)ホームページ 
          http://www.nasda.go.jp/
         打上げ衛星 :地球観測プラットフォーム技術衛星(ADEOS) 
                       アマチュア衛星3号(JAS-2)
          http://yyy.tksc.nasda.go.jp/Home/Press/Press-j/jas-2_j.html        

  D.JAMSATによる軌道情報の活用
        JAMSATのホームページまたはjamsat−kepsの軌道要素より
      衛星の軌道情報を得る.
     JAMSATホームページ
               URL    http://www.jamsat.or.jp
       上記ホームページでは各地で行われるアマチュア通信衛星に関する
      ミューティングのお知らせや世界のアマチュア衛星に関する情報が
      満載されています.
 ========================================================================  
     JAMSATのメンバーのご協力によりJH6MME(高山 秀造)が
    執筆・編集を担当しております.ご指摘の意見、疑問やこのようにしたら
    というアイデアがありましたら小さなことでもかまいませんので気軽に下
    記アドレスまでご連絡ください.jamsat−newsからjas2
    infoへの転載をJH4PHW局坂井さんに担当して頂いております.  
                  E-mail : jh6mme@jamsat.or.jp : jh4phw@jamsat.or.jp
 ===============================   END  ===============================